Find Starlink 32593

NORAD ID: 61974 Int'l Des: 2024-210 Owner: SPXS Country: US Constellation: starlink operational
LEOCIRCULAR

Live-Position

3D-Globus wird geladen...

Über Starlink 32593

Beschreibung wird geladen...

Nächste Überflüge

Passes for default location (London). Set your location on the main map for personalized predictions.

Höhenverlauf

Loading altitude history...

Zweizeiliger Elementsatz

1 61974U 24210R 26125.63114825 .00018371 00000-0 67496-3 0 9997
2 61974 42.9987 218.6636 0001305 281.8879 78.1826 15.27603849 83583
Epoch: 5. Mai 2026 • Age: 10 hours

Aktueller Status

Höhe 486.7 km
Geschwindigkeit 7.63 km/s
Subsatellitenpunkt 42.11°N, 53.48°E
Startdatum 14. Nov. 2024
Alter 1.4 years
Typ internet

Technische Details

Klassifizierung Payload
Masse 730.00 kg
Trockenmasse 700.00 kg
Gesamtmasse 730.00 kg
Länge 0.30 m
Durchmesser 4.10 m
Spannweite 29.00 m
Form Box + pan
Hersteller SPXS
Bus-Typ Starlink V2M
Phasenstatus In Orbit
Besitzer/Staat SPXS/US

Most Searched